Location: Newark
(45.0500°N, 9.5500°E)
Time: 12:58:27
(UTC+00:00)

N. Korean satellite - Pass Details

Date: 07 April 2020
Orbit: 455 x 504 km, 97.2° (Epoch: 01 June)

Event Time Altitude Azimuth Distance (km) Brightness Sun altitude
Rises 04:11:29 0° 30° (NNE) 2,488 11.0 -7.6°
Reaches altitude 10° 04:14:11 10° 53° (NE) 1,604 10.6 -7.1°
Maximum altitude 04:16:20 16° 92° (E) 1,288 10.0 -6.8°
Drops below altitude 10° 04:18:29 10° 131° (SE) 1,593 9.7 -6.4°
Sets 04:21:08 0° 155° (SSE) 2,462 10.3 -5.9°
